Vertical_Velocity
5 -2 2 -7 -1 1 5 15 23 -3 -3 8 -1 -12 3 7 -3 -8 -4 -1 1 5 3 4 -8 -4 -6 3 2 9 -1 2 1 6 -6 -0 1 -2 0 0 1 -4 -19 -80 -66 3 4 8 8
1 1 1 -5 -2 -6 18 20 -8 0 1 19 -6 -14 -12 -12 3 3 -7 -8 9 4 -3 -1 -2 -3 5 5 10 2 5 1 1 2 -5 4 -6 -4 5 2 -2 -1 -2 16 -2 -22 5 23 14
-2 -4 0 -10 7 7 7 5 -2 -4 -1 1 -1 5 6 -3 4 2 2 -1 3 3 4 1 0 2 2 1 -1 -1 3 1 -0 -1 1 -2 -0 -0 6 1 0 0 5 0 -3 2 -17 2 -68
-4 2 1 -1 5 5 -6 -4 -1 -2 -9 8 6 -4 -8 -10 13 15 4 2 1 2 1 -2 -5 -1 -2 -2 -4 -2 -2 1 -3 1 -3 -3 0 3 1 -0 -8 4 4 3 -0 -11 -3 -8 4
-2 -5 1 4 4 -1 -1 0 15 11 5 4 4 -1 -3 -3 -12 3 0 1 3 -5 -0 -1 5 3 1 6 1 0 2 -0 1 2 0 -7 0 -2 3 -4 -6 0 3 -2 -3 11 0 -8 5
1 7 -0 8 8 -2 -22 1 8 10 -6 -3 -11 -5 -3 13 -20 3 4 -4 2 5 -1 2 -0 1 3 1 -3 1 -1 3 -7 -4 -4 -5 -1 2 -1 -1 -2 -4 1 -4 -1 1 -2 8 11
-7 -0 -5 14 4 -2 1 -23 -1 2 1 -12 -0 -1 -7 -7 -4 -5 -0 6 -2 2 4 4 -1 2 -1 -3 0 1 -2 -1 -1 -3 -2 -4 -2 -0 -1 -4 -5 -6 -5 -3 -0 1 2 -0 8
2 16 25 14 -0 -4 -6 -4 -12 -9 -10 -1 1 -12 -13 -3 -10 -1 4 6 2 2 -7 -2 1 5 3 -4 -1 -3 -2 -3 -0 -3 -5 -3 1 -0 -2 -0 -4 -1 -3 1 -3 -1 4 1 -2
16 23 12 4 -2 10 9 -1 6 -3 3 -15 5 -0 3 -4 -3 -2 4 5 -9 -3 -1 -3 -13 -9 -5 -3 4 3 -1 -6 -2 -2 -1 -0 -1 2 1 0 -3 -3 3 1 2 1 1 -4 -2
-12 5 3 7 -0 -2 -7 2 12 -1 -0 6 5 -1 -8 -4 3 -1 0 2 -3 -8 1 8 2 2 6 -6 -0 1 4 3 4 4 -0 -5 -1 0 -1 -2 -1 0 -1 -7 -8 -2 -1 1 -6
2 -4 6 -7 -4 -7 -3 -8 -1 -11 8 12 -3 -7 -1 2 -1 3 3 4 2 1 -5 1 6 1 -2 -2 -1 -1 -4 -4 -4 -4 1 -3 -5 -5 -4 -2 -2 -7 -3 -1 -2 -6 -9 -3 1
1 -3 -9 -5 -7 -8 -11 -4 -8 -6 2 -6 5 7 1 -1 1 1 2 -5 -6 -3 7 10 -2 -4 -3 -3 0 -3 -1 -6 -0 -1 0 -1 -1 -4 -2 1 1 1 -1 -2 -6 -4 0 -8 -8
-4 -7 -6 -1 -6 -9 -3 4 -4 -4 2 -3 -3 2 2 -3 -2 1 -4 3 3 -1 -9 -4 -1 1 -4 -2 -4 -3 1 1 -2 3 -2 0 7 1 2 -0 -1 -4 -4 -4 -3 1 -5 -3 -2
3 -3 -1 -7 -4 -0 -10 -4 -1 3 -3 -4 -4 -2 0 -2 4 1 4 1 -1 1 -4 -1 -2 -0 -2 1 4 1 2 -1 -1 0 6 -2 2 -1 2 2 3 8 0 1 -0 -1 1 -1 2
-1 0 3 1 -3 1 -5 2 -2 2 -0 -2 -2 -6 -4 -3 -4 -1 -2 -2 0 -2 0 2 1 1 4 -2 -1 1 4 5 3 2 -1 -0 4 3 1 -1 1 3 4 2 -2 -1 -0 2 -3
-4 1 12 3 8 6 -7 -13 -1 13 6 -0 2 -0 -4 -7 -6 -7 -5 -8 -7 -3 -3 -1 0 -1 -1 -1 -1 -6 -2 -3 -4 -8 -1 2 -0 4 4 0 0 -2 1 4 4 6 3 2 4
6 0 -6 -8 13 -3 6 -3 -2 -4 13 3 5 6 -0 -2 1 -0 1 -1 -4 -4 -0 1 0 -0 -0 -1 -2 -2 -3 -0 -2 -2 3 2 0 -2 -2 -0 2 -1 -2 -0 1 2 0 4 3
-4 -4 -6 8 17 6 -2 -2 -5 4 1 0 4 8 9 2 0 -4 2 4 0 -2 1 0 -1 1 1 -1 1 -0 -2 1 -0 0 -4 -2 -1 -0 -0 -1 -1 -0 1 -1 1 -0 -1 -4 -7
-1 1 7 -1 0 -11 3 -3 -5 14 2 1 4 2 5 5 1 -0 0 1 1 2 2 1 1 -1 2 3 -0 -2 -2 -3 -0 0 2 0 1 4 -0 -5 -4 -1 -1 -1 -6 -6 -4 1 0
3 -1 -3 -1 -1 1 -1 -12 18 -7 -0 -7 -7 -2 -5 -4 -6 -4 -5 -0 3 3 1 -0 3 3 -1 0 1 0 0 2 1 2 -3 -3 -5 -2 -7 -5 -1 1 0 -1 -3 -5 -6 -10 -12
5 -1 -2 3 -6 6 1 -6 -7 -3 1 2 -5 -4 -2 -4 -3 -4 0 1 1 2 1 3 1 -3 -5 -9 -10 -5 -2 -7 -2 1 3 1 1 4 3 -0 3 1 -3 -3 -2 -4 -3 -2 0
-7 -3 -4 -1 2 -6 16 -10 20 -2 -7 -2 -3 -9 -5 -0 3 -1 -3 -6 -5 -8 -4 -5 -2 0 2 3 1 0 -5 2 2 -4 6 7 9 7 4 5 -1 -4 -2 -7 -4 -4 -1 -4 -5
-4 -4 -5 -0 -2 9 4 6 17 1 9 0 -0 7 6 3 2 -2 1 -2 -5 -4 -6 -5 -5 -2 -0 -2 -1 0 -2 -5 1 3 2 1 -0 3 3 1 1 -1 -1 2 3 -4 -10 -2 -4
-3 -8 -2 2 -0 -1 11 4 -9 2 17 4 3 4 3 3 -2 1 2 1 -8 2 -3 -3 -3 -7 -8 -12 -6 -10 -6 -3 -0 -4 -1 3 4 4 6 5 7 8 10 2 1 -6 1 -4 -4
-1 -11 -8 -9 -3 -5 3 -9 -1 16 9 21 20 17 8 0 7 -0 -6 -13 -6 -5 -6 -3 -3 -2 -1 12 7 3 5 8 5 9 5 -2 -2 -3 5 7 2 1 3 0 -5 -5 9 3 -6
-1 2 -1 -1 -2 -6 -2 -2 -1 5 9 -7 -7 4 6 -1 -4 -11 3 0 -3 -1 -1 -3 -2 -1 -3 -12 -8 2 3 10 15 14 8 7 12 9 8 6 4 -4 -3 -17 7 2 -1 -0 -1
-0 -6 5 -1 2 -0 -4 -7 18 5 2 1 -19 -4 -11 -1 -0 -2 6 9 6 4 -0 0 5 -0 -0 -8 -8 -2 4 2 2 7 10 10 9 5 3 2 5 -0 6 8 1 -2 -3 -2 -1
-2 2 -8 -1 -4 -1 -2 -5 -15 -15 -24 16 -1 19 1 17 8 5 8 6 2 -6 2 -3 1 -3 -3 -6 -1 -1 1 1 -0 7 13 13 10 5 6 25 11 4 4 2 -2 -4 -1 -4 -0
2 2 16 8 -2 -1 -1 -9 -1 -7 11 -7 3 4 -33 -2 1 -5 -8 -11 -1 3 9 3 -1 -4 1 -6 -0 -3 -2 2 4 2 6 1 12 9 -3 -4 -4 -2 -1 -1 -4 -4 -3 -5 -4
4 0 8 14 -8 -6 7 -39 -2 10 4 -18 27 -15 13 10 8 -1 3 3 2 -6 -1 -1 -2 -6 -2 -2 -1 0 2 1 -0 -0 2 10 1 -3 -3 -3 0 -0 -4 -5 -4 -4 -1 -3 -5
Height
3147 3147 3148 3151 3158 3153 3155 3161 3154 3153 3155 3154 3154 3157 3158 3160 3162 3167 3166 3166 3168 3168 3168 3169 3171 3171 3169 3170 3169 3169 3168 3167 3165 3165 3165 3163 3164 3165 3167 3167 3169 3168 3167 3172 3176 3171 3167 3168 3169
3148 3148 3151 3153 3155 3157 3158 3159 3155 3155 3157 3157 3158 3158 3160 3159 3163 3163 3164 3166 3166 3167 3169 3169 3169 3171 3169 3169 3167 3166 3167 3167 3164 3164 3164 3161 3162 3163 3165 3166 3166 3166 3164 3162 3159 3159 3151 3162 3163
3149 3150 3153 3156 3157 3159 3156 3156 3158 3157 3157 3159 3159 3161 3161 3162 3163 3164 3166 3166 3167 3168 3169 3169 3169 3170 3168 3167 3166 3167 3166 3165 3163 3162 3162 3161 3160 3161 3161 3161 3163 3160 3159 3156 3157 3160 3160 3160 3152
3151 3152 3157 3159 3158 3158 3156 3158 3159 3157 3157 3159 3160 3159 3163 3164 3165 3167 3166 3167 3167 3168 3167 3167 3168 3168 3166 3166 3164 3164 3162 3161 3160 3159 3157 3157 3159 3159 3157 3158 3158 3157 3156 3155 3155 3154 3154 3156 3153
3153 3154 3155 3160 3157 3158 3158 3159 3160 3158 3160 3159 3159 3161 3165 3164 3163 3165 3165 3166 3165 3165 3165 3165 3166 3165 3165 3163 3163 3161 3159 3158 3157 3155 3154 3154 3154 3155 3155 3153 3153 3153 3151 3150 3152 3153 3153 3153 3154
3156 3156 3155 3160 3156 3157 3159 3159 3157 3160 3158 3159 3162 3163 3164 3166 3166 3166 3165 3164 3167 3165 3164 3165 3164 3163 3162 3161 3159 3158 3157 3156 3153 3152 3150 3150 3150 3149 3149 3149 3148 3147 3147 3145 3147 3149 3150 3152 3152
3155 3158 3157 3156 3155 3157 3158 3159 3161 3160 3161 3161 3163 3163 3165 3164 3165 3165 3165 3164 3164 3163 3164 3163 3161 3161 3159 3157 3156 3155 3153 3152 3152 3149 3147 3147 3145 3145 3143 3143 3143 3143 3142 3142 3142 3143 3145 3146 3146
3157 3158 3159 3154 3155 3158 3158 3158 3162 3163 3162 3162 3161 3160 3164 3164 3163 3164 3165 3164 3161 3160 3158 3158 3158 3157 3156 3153 3152 3151 3150 3148 3147 3146 3144 3144 3142 3142 3141 3139 3139 3138 3137 3137 3137 3136 3137 3138 3139
3158 3160 3153 3154 3156 3159 3161 3158 3161 3162 3162 3162 3162 3159 3161 3162 3162 3163 3164 3162 3157 3157 3159 3157 3153 3153 3151 3150 3149 3149 3148 3146 3144 3143 3142 3142 3140 3140 3140 3139 3139 3138 3137 3135 3133 3132 3129 3130 3133
3157 3157 3156 3157 3157 3159 3159 3159 3160 3161 3162 3161 3161 3157 3156 3159 3160 3159 3160 3160 3154 3152 3156 3157 3155 3152 3150 3146 3145 3144 3144 3143 3143 3143 3142 3140 3139 3140 3139 3138 3137 3136 3136 3135 3134 3132 3128 3126 3128
3158 3156 3158 3157 3158 3158 3159 3159 3160 3160 3160 3161 3160 3158 3156 3155 3156 3157 3159 3157 3155 3153 3154 3155 3154 3151 3148 3146 3144 3142 3140 3140 3140 3138 3138 3137 3136 3134 3135 3135 3134 3131 3129 3128 3128 3127 3127 3126 3124
3161 3157 3158 3158 3158 3158 3159 3158 3158 3158 3159 3159 3160 3158 3157 3157 3156 3155 3156 3154 3153 3152 3152 3153 3151 3149 3146 3145 3143 3142 3142 3140 3140 3138 3136 3135 3134 3132 3131 3129 3130 3130 3128 3126 3126 3123 3120 3119 3120
3160 3158 3158 3158 3158 3158 3157 3157 3156 3156 3157 3156 3156 3157 3156 3155 3154 3154 3154 3153 3152 3150 3147 3149 3148 3147 3144 3143 3142 3140 3139 3138 3136 3136 3133 3132 3131 3128 3127 3125 3124 3124 3124 3123 3122 3121 3120 3117 3115
3159 3159 3158 3158 3157 3157 3156 3155 3155 3155 3155 3154 3154 3154 3154 3153 3152 3152 3151 3150 3149 3148 3146 3145 3144 3143 3142 3141 3140 3137 3136 3134 3132 3131 3129 3126 3124 3121 3120 3119 3119 3119 3116 3116 3115 3115 3114 3113 3111
3160 3158 3158 3157 3156 3156 3156 3155 3154 3153 3150 3151 3151 3152 3152 3150 3150 3149 3148 3147 3146 3145 3143 3142 3140 3139 3138 3136 3135 3133 3131 3128 3127 3125 3123 3121 3119 3115 3113 3111 3110 3109 3109 3108 3107 3106 3105 3104 3104
3160 3160 3159 3157 3156 3156 3155 3154 3152 3152 3150 3149 3147 3146 3146 3146 3146 3145 3145 3144 3143 3141 3140 3139 3137 3136 3134 3131 3130 3126 3125 3124 3120 3119 3118 3114 3112 3110 3106 3105 3104 3101 3100 3100 3100 3099 3097 3096 3095
3162 3160 3159 3158 3157 3156 3154 3150 3150 3150 3150 3147 3146 3145 3144 3144 3143 3142 3141 3140 3138 3137 3136 3134 3132 3130 3129 3126 3123 3119 3117 3115 3111 3107 3110 3108 3105 3102 3099 3097 3096 3093 3091 3090 3092 3090 3089 3088 3086
3160 3160 3159 3159 3158 3154 3151 3148 3147 3147 3145 3145 3144 3145 3145 3144 3141 3139 3140 3138 3136 3135 3134 3130 3128 3126 3124 3122 3119 3114 3111 3107 3102 3098 3094 3099 3098 3096 3092 3088 3087 3086 3083 3081 3081 3081 3080 3078 3076
3160 3159 3157 3155 3154 3151 3148 3144 3144 3144 3144 3144 3144 3144 3143 3142 3141 3139 3137 3136 3135 3133 3131 3128 3124 3121 3120 3116 3112 3109 3104 3102 3099 3095 3090 3086 3086 3087 3085 3081 3077 3076 3075 3075 3073 3072 3070 3069 3066
3158 3156 3153 3152 3150 3148 3144 3139 3139 3139 3140 3141 3141 3141 3140 3139 3138 3136 3134 3133 3132 3130 3127 3124 3121 3116 3113 3109 3106 3101 3098 3096 3091 3088 3083 3079 3077 3074 3072 3073 3071 3067 3065 3064 3065 3063 3059 3057 3056
3157 3154 3152 3151 3147 3145 3144 3139 3137 3137 3137 3138 3137 3136 3134 3133 3132 3132 3131 3129 3127 3125 3122 3119 3114 3110 3105 3100 3097 3094 3089 3085 3085 3080 3076 3071 3068 3067 3064 3062 3060 3058 3056 3054 3054 3054 3051 3048 3046
3154 3153 3150 3148 3148 3145 3144 3143 3138 3135 3135 3135 3134 3131 3131 3131 3127 3126 3125 3123 3120 3118 3115 3112 3110 3108 3103 3096 3091 3087 3086 3081 3077 3075 3072 3068 3065 3063 3060 3056 3052 3049 3046 3045 3044 3043 3042 3039 3037
3152 3149 3147 3143 3143 3145 3142 3142 3138 3136 3133 3133 3132 3131 3129 3127 3127 3123 3121 3118 3115 3112 3108 3104 3103 3102 3100 3096 3090 3084 3078 3076 3073 3069 3066 3062 3058 3054 3052 3048 3044 3040 3038 3036 3035 3033 3032 3031 3028
3150 3147 3143 3141 3141 3143 3144 3142 3138 3137 3134 3133 3132 3129 3127 3126 3122 3119 3117 3114 3112 3109 3104 3101 3097 3094 3090 3086 3082 3077 3072 3068 3064 3061 3058 3055 3051 3048 3044 3040 3036 3034 3032 3029 3026 3022 3021 3018 3018
3150 3146 3144 3144 3145 3145 3141 3142 3139 3137 3135 3134 3132 3130 3126 3122 3118 3115 3112 3110 3106 3103 3100 3096 3092 3089 3085 3081 3074 3069 3064 3059 3054 3050 3046 3044 3041 3038 3034 3031 3026 3025 3022 3017 3014 3012 3011 3009 3007
3152 3151 3152 3156 3155 3148 3141 3140 3139 3136 3134 3133 3130 3127 3123 3120 3117 3113 3110 3105 3101 3097 3094 3091 3087 3083 3078 3072 3067 3061 3057 3052 3047 3043 3037 3032 3028 3026 3022 3018 3014 3011 3008 3004 3005 3002 3000 2998 2995
3154 3153 3154 3153 3150 3149 3142 3140 3139 3134 3135 3131 3128 3125 3122 3117 3113 3109 3105 3099 3094 3091 3087 3083 3080 3074 3066 3060 3056 3052 3047 3041 3035 3031 3026 3020 3015 3011 3009 3008 3003 2999 2996 2996 2993 2989 2987 2984 2982
3155 3156 3154 3153 3153 3151 3140 3137 3137 3134 3130 3129 3124 3121 3115 3111 3106 3102 3098 3092 3087 3084 3081 3078 3072 3063 3055 3047 3044 3040 3034 3028 3024 3021 3016 3010 3005 3001 2998 2995 2993 2990 2987 2984 2980 2977 2975 2972 2970
3156 3155 3156 3156 3153 3149 3144 3135 3132 3131 3129 3126 3123 3113 3108 3106 3099 3095 3091 3085 3080 3076 3073 3067 3060 3053 3044 3037 3032 3029 3024 3018 3013 3009 3004 2999 2997 2992 2988 2985 2981 2978 2975 2972 2969 2966 2964 2960 2957
3155 3153 3154 3152 3150 3146 3141 3127 3128 3127 3125 3120 3115 3109 3105 3099 3094 3089 3085 3081 3077 3070 3064 3056 3050 3043 3033 3025 3020 3014 3008 3003 2999 2996 2994 2990 2986 2983 2979 2975 2971 2967 2965 2962 2958 2955 2951 2947 2943